Time,TemperatureF,DewpointF,PressureIn,WindDirection,WindDirectionDegrees,WindSpeedMPH,WindSpeedGustMPH,Humidity,HourlyPrecipIn,Conditions,Clouds,dailyrainin,SoftwareType,DateUTC
2013-06-01 00:08:00,77.3,65.9,29.98,SW,224,0.0,0.0,68,0.00,,,0.00,WeatherCatV1.15B25,2013-06-01 04:08:00,
2013-06-01 00:13:00,77.1,65.7,29.98,SW,224,0.0,0.0,68,0.00,,,0.00,WeatherCatV1.15B25,2013-06-01 04:13:00,
2013-06-01 00:18:00,76.6,65.2,29.98,SW,224,0.0,0.0,68,0.00,,,0.00,WeatherCatV1.15B25,2013-06-01 04:18:00,
2013-06-01 00:23:00,76.4,65.5,29.98,SW,228,0.0,0.0,69,0.00,,,0.00,WeatherCatV1.15B25,2013-06-01 04:23:00,
2013-06-01 00:28:00,76.2,65.3,29.98,SW,228,0.0,0.0,69,0.00,,,0.00,WeatherCatV1.15B25,2013-06-01 04:28:00,
2013-06-01 00:33:00,76.3,64.9,29.98,SW,231,0.0,0.0,68,0.00,,,0.00,WeatherCatV1.15B25,2013-06-01 04:33:00,
2013-06-01 00:38:00,76.3,64.5,29.97,SW,232,0.0,1.0,67,0.00,,,0.00,WeatherCatV1.15B25,2013-06-01 04:38:00,
2013-06-01 00:43:00,75.9,64.6,29.97,East,97,0.0,1.0,68,0.00,,,0.00,WeatherCatV1.15B25,2013-06-01 04:43:00,
2013-06-01 00:48:00,75.9,64.1,29.97,East,97,0.0,0.0,67,0.00,,,0.00,WeatherCatV1.15B25,2013-06-01 04:48:00,
2013-06-01 00:53:00,76.1,64.3,29.97,ENE,75,0.0,1.0,67,0.00,,,0.00,WeatherCatV1.15B25,2013-06-01 04:53:00,
2013-06-01 00:58:00,75.9,64.6,29.97,ENE,75,0.0,0.0,68,0.00,,,0.00,WeatherCatV1.15B25,2013-06-01 04:58:00,
2013-06-01 01:00:00,75.9,64.1,29.97,ENE,75,0.0,0.0,67,0.00,,,0.00,WeatherCatV1.15B25,2013-06-01 05:00:00,
2013-06-01 01:05:00,75.5,64.2,29.97,ENE,75,0.0,1.0,68,0.00,,,0.00,WeatherCatV1.15B25,2013-06-01 05:05:00,
2013-06-01 01:10:00,75.3,64.0,29.97,East,90,0.0,0.0,68,0.00,,,0.00,WeatherCatV1.15B25,2013-06-01 05:10:00,
2013-06-01 01:15:00,74.8,63.5,29.97,East,91,0.0,0.0,68,0.00,,,0.00,WeatherCatV1.15B25,2013-06-01 05:15:00,
2013-06-01 01:20:00,74.5,63.6,29.97,East,89,0.0,0.0,69,0.00,,,0.00,WeatherCatV1.15B25,2013-06-01 05:20:00,
2013-06-01 01:25:00,74.4,63.5,29.97,SW,232,0.0,1.0,69,0.00,,,0.00,WeatherCatV1.15B25,2013-06-01 05:25:00,
2013-06-01 01:30:00,74.2,63.4,29.96,SSW,211,0.0,0.0,69,0.00,,,0.00,WeatherCatV1.15B25,2013-06-01 05:30:00,
2013-06-01 01:35:00,74.1,63.3,29.96,SW,219,0.0,2.0,69,0.00,,,0.00,WeatherCatV1.15B25,2013-06-01 05:35:00,
2013-06-01 01:40:00,74.0,63.6,29.96,SW,219,0.0,0.0,70,0.00,,,0.00,WeatherCatV1.15B25,2013-06-01 05:40:00,
2013-06-01 01:45:00,73.9,63.1,29.96,SSW,207,0.0,0.0,69,0.00,,,0.00,WeatherCatV1.15B25,2013-06-01 05:45:00,
2013-06-01 01:50:00,73.9,63.1,29.96,West,266,0.0,0.0,69,0.00,,,0.00,WeatherCatV1.15B25,2013-06-01 05:50:00,
2013-06-01 01:55:00,73.8,63.0,29.96,SSW,206,0.0,1.0,69,0.00,,,0.00,WeatherCatV1.15B25,2013-06-01 05:55:00,
2013-06-01 02:00:00,73.5,63.1,29.96,SSW,204,0.0,1.0,70,0.00,,,0.00,WeatherCatV1.15B25,2013-06-01 06:00:00,
2013-06-01 02:05:00,73.5,63.1,29.96,SSW,204,0.0,0.0,70,0.00,,,0.00,WeatherCatV1.15B25,2013-06-01 06:05:00,
2013-06-01 02:10:00,73.2,63.2,29.96,ESE,123,0.0,1.0,71,0.00,,,0.00,WeatherCatV1.15B25,2013-06-01 06:10:00,
2013-06-01 02:15:00,73.2,62.8,29.96,SW,235,0.0,1.0,70,0.00,,,0.00,WeatherCatV1.15B25,2013-06-01 06:15:00,
2013-06-01 02:20:00,73.0,63.0,29.95,SW,221,0.0,0.0,71,0.00,,,0.00,WeatherCatV1.15B25,2013-06-01 06:20:00,
2013-06-01 02:25:00,73.1,63.1,29.95,SW,218,0.0,1.0,71,0.00,,,0.00,WeatherCatV1.15B25,2013-06-01 06:25:00,
2013-06-01 02:30:00,72.8,63.2,29.95,SW,217,0.0,1.0,72,0.00,,,0.00,WeatherCatV1.15B25,2013-06-01 06:30:00,
2013-06-01 02:35:00,72.8,62.8,29.95,SSW,212,0.0,1.0,71,0.00,,,0.00,WeatherCatV1.15B25,2013-06-01 06:35:00,
2013-06-01 02:40:00,72.6,62.6,29.95,NE,46,0.0,2.0,71,0.00,,,0.00,WeatherCatV1.15B25,2013-06-01 06:40:00,
2013-06-01 02:45:00,72.6,63.0,29.95,NE,44,0.0,1.0,72,0.00,,,0.00,WeatherCatV1.15B25,2013-06-01 06:45:00,
2013-06-01 02:50:00,72.4,62.8,29.95,NW,308,0.0,0.0,72,0.00,,,0.00,WeatherCatV1.15B25,2013-06-01 06:50:00,
2013-06-01 02:55:00,72.4,62.8,29.95,SSW,212,0.0,2.0,72,0.00,,,0.00,WeatherCatV1.15B25,2013-06-01 06:55:00,
2013-06-01 03:00:00,72.2,62.7,29.95,ENE,73,0.0,1.0,72,0.00,,,0.00,WeatherCatV1.15B25,2013-06-01 07:00:00,
2013-06-01 03:05:00,72.3,63.1,29.95,SSE,151,0.0,2.0,73,0.00,,,0.00,WeatherCatV1.15B25,2013-06-01 07:05:00,
2013-06-01 03:10:00,72.1,62.6,29.95,NNW,336,1.0,1.0,72,0.00,,,0.00,WeatherCatV1.15B25,2013-06-01 07:10:00,
2013-06-01 03:15:00,72.1,62.6,29.95,NNE,13,1.0,1.0,72,0.00,,,0.00,WeatherCatV1.15B25,2013-06-01 07:15:00,
2013-06-01 03:20:00,71.9,62.8,29.95,NNW,348,0.0,2.0,73,0.00,,,0.00,WeatherCatV1.15B25,2013-06-01 07:20:00,
2013-06-01 03:25:00,71.9,62.8,29.95,North,354,0.0,0.0,73,0.00,,,0.00,WeatherCatV1.15B25,2013-06-01 07:25:00,
2013-06-01 03:30:00,71.7,62.6,29.95,ENE,61,0.0,2.0,73,0.00,,,0.00,WeatherCatV1.15B25,2013-06-01 07:30:00,
2013-06-01 03:35:00,71.6,62.5,29.95,NNW,330,0.0,0.0,73,0.00,,,0.00,WeatherCatV1.15B25,2013-06-01 07:35:00,
2013-06-01 03:40:00,71.6,62.5,29.95,North,8,1.0,1.0,73,0.00,,,0.00,WeatherCatV1.15B25,2013-06-01 07:40:00,
2013-06-01 03:45:00,71.2,62.5,29.95,NNE,15,0.0,1.0,74,0.00,,,0.00,WeatherCatV1.15B25,2013-06-01 07:45:00,
2013-06-01 03:50:00,71.1,62.8,29.95,NNE,13,0.0,0.0,75,0.00,,,0.00,WeatherCatV1.15B25,2013-06-01 07:50:00,
2013-06-01 03:55:00,70.9,62.6,29.95,WSW,250,0.0,1.0,75,0.00,,,0.00,WeatherCatV1.15B25,2013-06-01 07:55:00,
2013-06-01 04:00:00,70.7,62.4,29.95,SSW,207,0.0,1.0,75,0.00,,,0.00,WeatherCatV1.15B25,2013-06-01 08:00:00,
2013-06-01 04:05:00,70.6,62.7,29.95,South,179,1.0,1.0,76,0.00,,,0.00,WeatherCatV1.15B25,2013-06-01 08:05:00,
2013-06-01 04:10:00,70.5,62.6,29.95,SW,214,0.0,1.0,76,0.00,,,0.00,WeatherCatV1.15B25,2013-06-01 08:10:00,
2013-06-01 04:15:00,70.4,62.5,29.95,SW,231,0.0,2.0,76,0.00,,,0.00,WeatherCatV1.15B25,2013-06-01 08:15:00,
2013-06-01 04:20:00,70.4,62.5,29.95,ESE,118,0.0,1.0,76,0.00,,,0.00,WeatherCatV1.15B25,2013-06-01 08:20:00,
2013-06-01 04:25:00,70.2,62.6,29.95,South,187,0.0,1.0,77,0.00,,,0.00,WeatherCatV1.15B25,2013-06-01 08:25:00,
2013-06-01 04:30:00,70.2,62.6,29.96,NE,42,0.0,1.0,77,0.00,,,0.00,WeatherCatV1.15B25,2013-06-01 08:30:00,
2013-06-01 04:35:00,70.2,62.6,29.96,NNW,340,0.0,0.0,77,0.00,,,0.00,WeatherCatV1.15B25,2013-06-01 08:35:00,
2013-06-01 04:40:00,69.9,62.3,29.96,North,352,0.0,1.0,77,0.00,,,0.00,WeatherCatV1.15B25,2013-06-01 08:40:00,
2013-06-01 04:45:00,69.7,62.5,29.96,NE,55,0.0,1.0,78,0.00,,,0.00,WeatherCatV1.15B25,2013-06-01 08:45:00,
2013-06-01 04:50:00,69.5,62.3,29.96,SW,214,0.0,0.0,78,0.00,,,0.00,WeatherCatV1.15B25,2013-06-01 08:50:00,
2013-06-01 04:55:00,69.6,62.4,29.96,SW,215,0.0,0.0,78,0.00,,,0.00,WeatherCatV1.15B25,2013-06-01 08:55:00,
2013-06-01 05:00:00,69.4,62.6,29.96,NNE,18,0.0,0.0,79,0.00,,,0.00,WeatherCatV1.15B25,2013-06-01 09:00:00,
2013-06-01 05:05:00,69.2,62.4,29.96,SSW,211,0.0,1.0,79,0.00,,,0.00,WeatherCatV1.15B25,2013-06-01 09:05:00,
2013-06-01 05:10:00,69.1,62.3,29.96,SSW,211,0.0,0.0,79,0.00,,,0.00,WeatherCatV1.15B25,2013-06-01 09:10:00,
2013-06-01 05:15:00,68.9,62.5,29.96,SW,229,0.0,1.0,80,0.00,,,0.00,WeatherCatV1.15B25,2013-06-01 09:15:00,
2013-06-01 05:20:00,69.0,62.6,29.96,NE,50,0.0,1.0,80,0.00,,,0.00,WeatherCatV1.15B25,2013-06-01 09:20:00,
2013-06-01 05:25:00,68.9,62.5,29.97,West,272,0.0,1.0,80,0.00,,,0.00,WeatherCatV1.15B25,2013-06-01 09:25:00,
2013-06-01 05:30:00,68.8,62.4,29.97,WNW,298,0.0,1.0,80,0.00,,,0.00,WeatherCatV1.15B25,2013-06-01 09:30:00,
2013-06-01 05:35:00,68.8,62.4,29.96,SSW,210,0.0,0.0,80,0.00,,,0.00,WeatherCatV1.15B25,2013-06-01 09:35:00,
2013-06-01 05:40:00,68.7,62.3,29.97,SW,217,0.0,0.0,80,0.00,,,0.00,WeatherCatV1.15B25,2013-06-01 09:40:00,
2013-06-01 05:45:00,68.8,62.4,29.96,SW,217,0.0,0.0,80,0.00,,,0.00,WeatherCatV1.15B25,2013-06-01 09:45:00,
2013-06-01 05:50:00,68.7,62.6,29.96,SW,226,1.0,1.0,81,0.00,,,0.00,WeatherCatV1.15B25,2013-06-01 09:50:00,
2013-06-01 05:55:00,68.7,62.6,29.97,ESE,120,0.0,1.0,81,0.00,,,0.00,WeatherCatV1.15B25,2013-06-01 09:55:00,
2013-06-01 06:00:00,69.1,62.7,29.97,WNW,302,0.0,0.0,80,0.00,,,0.00,WeatherCatV1.15B25,2013-06-01 10:00:00,
2013-06-01 06:05:00,69.0,62.6,29.97,ESE,113,0.0,1.0,80,0.00,,,0.00,WeatherCatV1.15B25,2013-06-01 10:05:00,
2013-06-01 06:10:00,69.2,62.8,29.97,SW,226,0.0,1.0,80,0.00,,,0.00,WeatherCatV1.15B25,2013-06-01 10:10:00,
2013-06-01 06:15:00,69.2,62.8,29.97,WSW,248,0.0,0.0,80,0.00,,,0.00,WeatherCatV1.15B25,2013-06-01 10:15:00,
2013-06-01 06:20:00,69.4,63.0,29.97,WSW,248,0.0,0.0,80,0.00,,,0.00,WeatherCatV1.15B25,2013-06-01 10:20:00,
2013-06-01 06:25:00,69.8,63.0,29.96,WSW,245,0.0,2.0,79,0.00,,,0.00,WeatherCatV1.15B25,2013-06-01 10:25:00,
2013-06-01 06:30:00,69.9,63.1,29.97,SSW,200,0.0,1.0,79,0.00,,,0.00,WeatherCatV1.15B25,2013-06-01 10:30:00,
2013-06-01 06:35:00,70.2,63.4,29.97,WNW,297,0.0,1.0,79,0.00,,,0.00,WeatherCatV1.15B25,2013-06-01 10:35:00,
2013-06-01 06:40:00,70.4,63.2,29.97,North,11,0.0,2.0,78,0.00,,,0.00,WeatherCatV1.15B25,2013-06-01 10:40:00,
2013-06-01 06:45:00,70.7,63.5,29.97,SW,229,2.0,2.0,78,0.00,,,0.00,WeatherCatV1.15B25,2013-06-01 10:45:00,
2013-06-01 06:50:00,71.0,63.4,29.97,South,174,0.0,1.0,77,0.00,,,0.00,WeatherCatV1.15B25,2013-06-01 10:50:00,
2013-06-01 06:55:00,71.2,63.6,29.97,North,356,0.0,1.0,77,0.00,,,0.00,WeatherCatV1.15B25,2013-06-01 10:55:00,
2013-06-01 07:00:00,71.7,63.7,29.97,NNE,26,1.0,2.0,76,0.00,,,0.00,WeatherCatV1.15B25,2013-06-01 11:00:00,
2013-06-01 07:05:00,71.9,63.9,29.97,SSW,201,0.0,0.0,76,0.00,,,0.00,WeatherCatV1.15B25,2013-06-01 11:05:00,
2013-06-01 07:10:00,72.2,64.2,29.97,SSW,212,0.0,1.0,76,0.00,,,0.00,WeatherCatV1.15B25,2013-06-01 11:10:00,
2013-06-01 07:15:00,72.6,63.8,29.97,NNW,346,0.0,1.0,74,0.00,,,0.00,WeatherCatV1.15B25,2013-06-01 11:15:00,
2013-06-01 07:20:00,72.8,64.0,29.97,NNE,13,0.0,1.0,74,0.00,,,0.00,WeatherCatV1.15B25,2013-06-01 11:20:00,
2013-06-01 07:25:00,73.4,64.2,29.97,SW,233,0.0,1.0,73,0.00,,,0.00,WeatherCatV1.15B25,2013-06-01 11:25:00,
2013-06-01 07:30:00,73.8,64.2,29.97,WSW,243,0.0,1.0,72,0.00,,,0.00,WeatherCatV1.15B25,2013-06-01 11:30:00,
2013-06-01 07:35:00,74.2,65.0,29.97,South,185,0.0,0.0,73,0.00,,,0.00,WeatherCatV1.15B25,2013-06-01 11:35:00,
2013-06-01 07:40:00,74.7,65.1,29.97,SE,132,0.0,1.0,72,0.00,,,0.00,WeatherCatV1.15B25,2013-06-01 11:40:00,
2013-06-01 07:45:00,75.3,64.8,29.97,SW,219,0.0,1.0,70,0.00,,,0.00,WeatherCatV1.15B25,2013-06-01 11:45:00,
2013-06-01 07:50:00,75.4,64.5,29.97,SW,222,0.0,3.0,69,0.00,,,0.00,WeatherCatV1.15B25,2013-06-01 11:50:00,
2013-06-01 07:55:00,75.6,64.7,29.97,SSW,201,0.0,1.0,69,0.00,,,0.00,WeatherCatV1.15B25,2013-06-01 11:55:00,
2013-06-01 08:00:00,76.0,65.1,29.97,SSW,206,0.0,0.0,69,0.00,,,0.00,WeatherCatV1.15B25,2013-06-01 12:00:00,
2013-06-01 08:05:00,76.5,65.6,29.97,SW,235,0.0,0.0,69,0.00,,,0.00,WeatherCatV1.15B25,2013-06-01 12:05:00,
2013-06-01 08:10:00,77.4,65.6,29.97,North,354,0.0,1.0,67,0.00,,,0.00,WeatherCatV1.15B25,2013-06-01 12:10:00,
2013-06-01 08:15:00,77.7,65.4,29.97,SSW,204,1.0,2.0,66,0.00,,,0.00,WeatherCatV1.15B25,2013-06-01 12:15:00,
2013-06-01 08:20:00,77.7,65.4,29.97,SSE,159,0.0,3.0,66,0.00,,,0.00,WeatherCatV1.15B25,2013-06-01 12:20:00,
2013-06-01 08:25:00,78.3,66.0,29.97,WSW,255,0.0,1.0,66,0.00,,,0.00,WeatherCatV1.15B25,2013-06-01 12:25:00,
2013-06-01 08:30:00,78.5,65.7,29.97,ENE,74,0.0,1.0,65,0.00,,,0.00,WeatherCatV1.15B25,2013-06-01 12:30:00,
2013-06-01 08:35:00,78.5,65.3,29.97,SW,216,1.0,3.0,64,0.00,,,0.00,WeatherCatV1.15B25,2013-06-01 12:35:00,
2013-06-01 08:40:00,79.0,66.2,29.97,SW,233,0.0,1.0,65,0.00,,,0.00,WeatherCatV1.15B25,2013-06-01 12:40:00,
2013-06-01 08:45:00,79.4,65.7,29.97,SW,218,1.0,1.0,63,0.00,,,0.00,WeatherCatV1.15B25,2013-06-01 12:45:00,
2013-06-01 08:50:00,79.8,65.6,29.97,WSW,252,1.0,3.0,62,0.00,,,0.00,WeatherCatV1.15B25,2013-06-01 12:50:00,
2013-06-01 08:55:00,80.1,65.9,29.97,SW,217,0.0,1.0,62,0.00,,,0.00,WeatherCatV1.15B25,2013-06-01 12:55:00,
2013-06-01 09:00:00,80.7,66.0,29.97,SE,141,0.0,1.0,61,0.00,,,0.00,WeatherCatV1.15B25,2013-06-01 13:00:00,
2013-06-01 09:05:00,81.1,66.4,29.97,SW,221,1.0,3.0,61,0.00,,,0.00,WeatherCatV1.15B25,2013-06-01 13:05:00,
2013-06-01 09:10:00,81.6,66.8,29.97,SSE,156,0.0,1.0,61,0.00,,,0.00,WeatherCatV1.15B25,2013-06-01 13:10:00,
2013-06-01 09:15:00,81.9,65.6,29.97,South,179,1.0,3.0,58,0.00,,,0.00,WeatherCatV1.15B25,2013-06-01 13:15:00,
2013-06-01 09:20:00,82.1,66.3,29.97,SSW,207,0.0,2.0,59,0.00,,,0.00,WeatherCatV1.15B25,2013-06-01 13:20:00,
2013-06-01 09:25:00,82.5,66.2,29.97,WSW,238,1.0,3.0,58,0.00,,,0.00,WeatherCatV1.15B25,2013-06-01 13:25:00,
2013-06-01 09:30:00,82.7,66.4,29.97,SSE,166,0.0,4.0,58,0.00,,,0.00,WeatherCatV1.15B25,2013-06-01 13:30:00,
2013-06-01 09:35:00,83.2,66.4,29.97,NW,325,0.0,3.0,57,0.00,,,0.00,WeatherCatV1.15B25,2013-06-01 13:35:00,
2013-06-01 09:40:00,83.9,68.0,29.97,SW,221,0.0,1.0,59,0.00,,,0.00,WeatherCatV1.15B25,2013-06-01 13:40:00,
2013-06-01 09:45:00,84.6,66.6,29.97,SSE,165,1.0,1.0,55,0.00,,,0.00,WeatherCatV1.15B25,2013-06-01 13:45:00,
2013-06-01 09:50:00,85.2,66.6,29.96,West,260,1.0,2.0,54,0.00,,,0.00,WeatherCatV1.15B25,2013-06-01 13:50:00,
2013-06-01 09:55:00,85.6,65.9,29.96,South,173,0.0,3.0,52,0.00,,,0.00,WeatherCatV1.15B25,2013-06-01 13:55:00,
2013-06-01 10:00:00,85.9,65.1,29.96,SW,221,0.0,3.0,50,0.00,,,0.00,WeatherCatV1.15B25,2013-06-01 14:00:00,
2013-06-01 10:05:00,86.3,65.4,29.96,SW,222,0.0,4.0,50,0.00,,,0.00,WeatherCatV1.15B25,2013-06-01 14:05:00,
2013-06-01 10:10:00,86.9,65.4,29.96,West,259,1.0,2.0,49,0.00,,,0.00,WeatherCatV1.15B25,2013-06-01 14:10:00,
2013-06-01 10:15:00,87.3,66.3,29.96,South,172,2.0,3.0,50,0.00,,,0.00,WeatherCatV1.15B25,2013-06-01 14:15:00,
2013-06-01 10:20:00,87.8,65.6,29.96,SSW,211,1.0,2.0,48,0.00,,,0.00,WeatherCatV1.15B25,2013-06-01 14:20:00,
2013-06-01 10:25:00,88.2,66.0,29.96,SSW,195,2.0,4.0,48,0.00,,,0.00,WeatherCatV1.15B25,2013-06-01 14:25:00,
2013-06-01 10:30:00,88.3,66.1,29.95,SSE,164,1.0,3.0,48,0.00,,,0.00,WeatherCatV1.15B25,2013-06-01 14:30:00,
2013-06-01 10:35:00,88.9,66.6,29.96,WSW,252,3.0,4.0,48,0.00,,,0.00,WeatherCatV1.15B25,2013-06-01 14:35:00,
2013-06-01 10:40:00,88.9,66.6,29.96,West,260,3.0,3.0,48,0.00,,,0.00,WeatherCatV1.15B25,2013-06-01 14:40:00,
2013-06-01 10:45:00,89.1,64.9,29.96,SSW,207,2.0,8.0,45,0.00,,,0.00,WeatherCatV1.15B25,2013-06-01 14:45:00,
2013-06-01 10:50:00,89.3,65.1,29.96,South,184,1.0,3.0,45,0.00,,,0.00,WeatherCatV1.15B25,2013-06-01 14:50:00,
2013-06-01 10:55:00,89.6,62.7,29.96,SW,234,5.0,7.0,41,0.00,,,0.00,WeatherCatV1.15B25,2013-06-01 14:55:00,
2013-06-01 11:00:00,89.6,64.8,29.95,WNW,297,2.0,6.0,44,0.00,,,0.00,WeatherCatV1.15B25,2013-06-01 15:00:00,
2013-06-01 11:05:00,90.0,63.8,29.95,SSW,213,4.0,4.0,42,0.00,,,0.00,WeatherCatV1.15B25,2013-06-01 15:05:00,
2013-06-01 11:10:00,90.4,64.8,29.95,WSW,238,1.0,5.0,43,0.00,,,0.00,WeatherCatV1.15B25,2013-06-01 15:10:00,
2013-06-01 11:15:00,90.5,64.2,29.95,SW,233,2.0,4.0,42,0.00,,,0.00,WeatherCatV1.15B25,2013-06-01 15:15:00,
2013-06-01 11:20:00,90.8,63.1,29.95,West,270,0.0,6.0,40,0.00,,,0.00,WeatherCatV1.15B25,2013-06-01 15:20:00,
2013-06-01 11:25:00,91.1,65.4,29.95,NNE,26,0.0,3.0,43,0.00,,,0.00,WeatherCatV1.15B25,2013-06-01 15:25:00,
2013-06-01 11:30:00,90.9,62.5,29.95,SW,215,5.0,6.0,39,0.00,,,0.00,WeatherCatV1.15B25,2013-06-01 15:30:00,
2013-06-01 11:35:00,90.6,63.6,29.94,WSW,252,0.0,5.0,41,0.00,,,0.00,WeatherCatV1.15B25,2013-06-01 15:35:00,
2013-06-01 11:40:00,91.2,63.5,29.95,SSE,158,0.0,4.0,40,0.00,,,0.00,WeatherCatV1.15B25,2013-06-01 15:40:00,
2013-06-01 11:45:00,91.1,63.4,29.95,North,350,1.0,4.0,40,0.00,,,0.00,WeatherCatV1.15B25,2013-06-01 15:45:00,
2013-06-01 11:50:00,91.0,63.3,29.95,SSW,211,4.0,5.0,40,0.00,,,0.00,WeatherCatV1.15B25,2013-06-01 15:50:00,
2013-06-01 11:55:00,90.9,65.3,29.95,NNW,330,3.0,4.0,43,0.00,,,0.00,WeatherCatV1.15B25,2013-06-01 15:55:00,
2013-06-01 12:00:00,91.4,63.6,29.94,SW,233,2.0,5.0,40,0.00,,,0.00,WeatherCatV1.15B25,2013-06-01 16:00:00,
2013-06-01 12:05:00,91.6,63.8,29.94,SSW,205,4.0,5.0,40,0.00,,,0.00,WeatherCatV1.15B25,2013-06-01 16:05:00,
2013-06-01 12:10:00,91.1,63.4,29.94,West,281,3.0,7.0,40,0.00,,,0.00,WeatherCatV1.15B25,2013-06-01 16:10:00,
2013-06-01 12:15:00,91.1,63.4,29.94,North,354,1.0,3.0,40,0.00,,,0.00,WeatherCatV1.15B25,2013-06-01 16:15:00,
2013-06-01 12:20:00,91.3,64.9,29.93,NW,325,2.0,5.0,42,0.00,,,0.00,WeatherCatV1.15B25,2013-06-01 16:20:00,
2013-06-01 12:25:00,91.4,63.6,29.93,SW,225,2.0,6.0,40,0.00,,,0.00,WeatherCatV1.15B25,2013-06-01 16:25:00,
2013-06-01 12:30:00,91.1,64.1,29.93,South,184,1.0,7.0,41,0.00,,,0.00,WeatherCatV1.15B25,2013-06-01 16:30:00,
2013-06-01 12:35:00,91.1,64.1,29.92,WNW,284,5.0,5.0,41,0.00,,,0.00,WeatherCatV1.15B25,2013-06-01 16:35:00,
2013-06-01 12:40:00,91.4,65.0,29.92,NNW,341,2.0,10.0,42,0.00,,,0.00,WeatherCatV1.15B25,2013-06-01 16:40:00,
2013-06-01 12:45:00,91.8,65.4,29.92,NW,325,3.0,4.0,42,0.00,,,0.00,WeatherCatV1.15B25,2013-06-01 16:45:00,
2013-06-01 12:50:00,91.9,65.5,29.92,SSW,198,3.0,4.0,42,0.00,,,0.00,WeatherCatV1.15B25,2013-06-01 16:50:00,
2013-06-01 12:55:00,92.0,64.9,29.92,SSW,205,5.0,5.0,41,0.00,,,0.00,WeatherCatV1.15B25,2013-06-01 16:55:00,
2013-06-01 13:00:00,92.2,64.3,29.91,NW,323,3.0,5.0,40,0.00,,,0.00,WeatherCatV1.15B25,2013-06-01 17:00:00,
2013-06-01 13:05:00,92.6,65.4,29.91,SSW,211,2.0,6.0,41,0.00,,,0.00,WeatherCatV1.15B25,2013-06-01 17:05:00,
2013-06-01 13:10:00,92.4,65.9,29.91,SSW,198,2.0,7.0,42,0.00,,,0.00,WeatherCatV1.15B25,2013-06-01 17:10:00,
2013-06-01 13:15:00,92.7,65.5,29.91,SW,232,6.0,7.0,41,0.00,,,0.00,WeatherCatV1.15B25,2013-06-01 17:15:00,
2013-06-01 13:20:00,92.8,64.9,29.91,SSW,211,0.0,2.0,40,0.00,,,0.00,WeatherCatV1.15B25,2013-06-01 17:20:00,
2013-06-01 13:25:00,93.0,64.3,29.91,SSW,204,1.0,6.0,39,0.00,,,0.00,WeatherCatV1.15B25,2013-06-01 17:25:00,
2013-06-01 13:30:00,92.7,63.3,29.91,NNE,16,1.0,7.0,38,0.00,,,0.00,WeatherCatV1.15B25,2013-06-01 17:30:00,
2013-06-01 13:35:00,92.6,64.0,29.90,SSE,162,1.0,4.0,39,0.00,,,0.00,WeatherCatV1.15B25,2013-06-01 17:35:00,
2013-06-01 13:40:00,92.7,63.3,29.90,WNW,303,2.0,9.0,38,0.00,,,0.00,WeatherCatV1.15B25,2013-06-01 17:40:00,
2013-06-01 13:45:00,92.8,63.4,29.91,SSW,195,2.0,6.0,38,0.00,,,0.00,WeatherCatV1.15B25,2013-06-01 17:45:00,
2013-06-01 13:50:00,93.0,64.3,29.90,WSW,240,2.0,5.0,39,0.00,,,0.00,WeatherCatV1.15B25,2013-06-01 17:50:00,
2013-06-01 13:55:00,93.1,64.4,29.90,NNW,344,2.0,5.0,39,0.00,,,0.00,WeatherCatV1.15B25,2013-06-01 17:55:00,
2013-06-01 14:00:00,93.4,63.9,29.90,SW,220,0.0,1.0,38,0.00,,,0.00,WeatherCatV1.15B25,2013-06-01 18:00:00,
2013-06-01 14:05:00,94.2,64.6,29.90,WNW,282,1.0,2.0,38,0.00,,,0.00,WeatherCatV1.15B25,2013-06-01 18:05:00,
2013-06-01 14:10:00,94.2,65.4,29.90,SSW,195,2.0,4.0,39,0.00,,,0.00,WeatherCatV1.15B25,2013-06-01 18:10:00,
2013-06-01 14:15:00,94.1,63.0,29.90,SW,235,1.0,5.0,36,0.00,,,0.00,WeatherCatV1.15B25,2013-06-01 18:15:00,
2013-06-01 14:20:00,94.3,63.2,29.90,WSW,248,2.0,4.0,36,0.00,,,0.00,WeatherCatV1.15B25,2013-06-01 18:20:00,
2013-06-01 14:25:00,94.5,65.7,29.90,South,183,1.0,2.0,39,0.00,,,0.00,WeatherCatV1.15B25,2013-06-01 18:25:00,
2013-06-01 14:30:00,94.7,63.5,29.89,SSW,200,5.0,10.0,36,0.00,,,0.00,WeatherCatV1.15B25,2013-06-01 18:30:00,
2013-06-01 14:35:00,93.8,61.9,29.89,NW,324,4.0,4.0,35,0.00,,,0.00,WeatherCatV1.15B25,2013-06-01 18:35:00,
2013-06-01 14:40:00,93.6,61.8,29.89,SE,135,1.0,6.0,35,0.00,,,0.00,WeatherCatV1.15B25,2013-06-01 18:40:00,
2013-06-01 14:45:00,94.0,62.1,29.89,NNW,344,3.0,6.0,35,0.00,,,0.00,WeatherCatV1.15B25,2013-06-01 18:45:00,
2013-06-01 14:50:00,94.0,62.9,29.88,SE,128,1.0,5.0,36,0.00,,,0.00,WeatherCatV1.15B25,2013-06-01 18:50:00,
2013-06-01 14:55:00,94.6,62.6,29.88,West,270,7.0,8.0,35,0.00,,,0.00,WeatherCatV1.15B25,2013-06-01 18:55:00,
2013-06-01 15:00:00,94.3,62.4,29.88,WSW,246,5.0,5.0,35,0.00,,,0.00,WeatherCatV1.15B25,2013-06-01 19:00:00,
2013-06-01 15:05:00,94.5,63.4,29.88,North,350,2.0,3.0,36,0.00,,,0.00,WeatherCatV1.15B25,2013-06-01 19:05:00,
2013-06-01 15:10:00,94.3,63.2,29.88,SW,214,1.0,5.0,36,0.00,,,0.00,WeatherCatV1.15B25,2013-06-01 19:10:00,
2013-06-01 15:15:00,94.3,64.0,29.88,SW,236,1.0,5.0,37,0.00,,,0.00,WeatherCatV1.15B25,2013-06-01 19:15:00,
2013-06-01 15:20:00,95.2,64.8,29.88,SSW,197,1.0,4.0,37,0.00,,,0.00,WeatherCatV1.15B25,2013-06-01 19:20:00,
2013-06-01 15:25:00,94.8,63.6,29.88,West,276,2.0,6.0,36,0.00,,,0.00,WeatherCatV1.15B25,2013-06-01 19:25:00,
2013-06-01 15:30:00,94.9,64.5,29.88,SW,224,3.0,5.0,37,0.00,,,0.00,WeatherCatV1.15B25,2013-06-01 19:30:00,
2013-06-01 15:35:00,95.2,65.5,29.88,South,174,1.0,4.0,38,0.00,,,0.00,WeatherCatV1.15B25,2013-06-01 19:35:00,
2013-06-01 15:40:00,95.3,64.1,29.88,ENE,66,3.0,9.0,36,0.00,,,0.00,WeatherCatV1.15B25,2013-06-01 19:40:00,
2013-06-01 15:45:00,95.4,64.9,29.87,NNE,20,3.0,3.0,37,0.00,,,0.00,WeatherCatV1.15B25,2013-06-01 19:45:00,
2013-06-01 15:50:00,95.3,64.8,29.88,SSW,193,2.0,3.0,37,0.00,,,0.00,WeatherCatV1.15B25,2013-06-01 19:50:00,
2013-06-01 15:55:00,94.7,64.3,29.88,SW,232,2.0,7.0,37,0.00,,,0.00,WeatherCatV1.15B25,2013-06-01 19:55:00,
2013-06-01 16:00:00,94.5,64.9,29.88,NNW,340,5.0,5.0,38,0.00,,,0.00,WeatherCatV1.15B25,2013-06-01 20:00:00,
2013-06-01 16:06:00,94.1,64.6,29.87,North,358,1.0,8.0,38,0.00,,,0.00,WeatherCatV1.15B25,2013-06-01 20:06:00,
2013-06-01 16:11:00,94.4,65.6,29.88,SSW,212,2.0,6.0,39,0.00,,,0.00,WeatherCatV1.15B25,2013-06-01 20:11:00,
2013-06-01 16:16:00,94.4,65.6,29.88,WSW,253,2.0,3.0,39,0.00,,,0.00,WeatherCatV1.15B25,2013-06-01 20:16:00,
2013-06-01 16:21:00,94.7,66.6,29.87,South,189,3.0,6.0,40,0.00,,,0.00,WeatherCatV1.15B25,2013-06-01 20:21:00,
2013-06-01 16:26:00,94.8,65.9,29.87,ESE,106,0.0,2.0,39,0.00,,,0.00,WeatherCatV1.15B25,2013-06-01 20:26:00,
2013-06-01 16:31:00,94.8,65.9,29.88,NNE,27,3.0,4.0,39,0.00,,,0.00,WeatherCatV1.15B25,2013-06-01 20:31:00,
2013-06-01 16:36:00,94.0,65.2,29.88,SW,230,2.0,8.0,39,0.00,,,0.00,WeatherCatV1.15B25,2013-06-01 20:36:00,
2013-06-01 16:41:00,94.1,66.0,29.87,NNW,333,1.0,3.0,40,0.00,,,0.00,WeatherCatV1.15B25,2013-06-01 20:41:00,
2013-06-01 16:46:00,94.6,65.7,29.87,SSW,195,3.0,4.0,39,0.00,,,0.00,WeatherCatV1.15B25,2013-06-01 20:46:00,
2013-06-01 16:51:00,94.5,66.4,29.87,West,274,3.0,5.0,40,0.00,,,0.00,WeatherCatV1.15B25,2013-06-01 20:51:00,
2013-06-01 16:56:00,94.1,65.3,29.87,West,269,0.0,5.0,39,0.00,,,0.00,WeatherCatV1.15B25,2013-06-01 20:56:00,
2013-06-01 17:01:00,94.1,66.7,29.87,SSW,201,3.0,5.0,41,0.00,,,0.00,WeatherCatV1.15B25,2013-06-01 21:01:00,
2013-06-01 17:06:00,94.7,66.6,29.87,North,352,4.0,4.0,40,0.00,,,0.00,WeatherCatV1.15B25,2013-06-01 21:06:00,
2013-06-01 17:11:00,94.5,66.4,29.87,SSW,199,1.0,4.0,40,0.00,,,0.00,WeatherCatV1.15B25,2013-06-01 21:11:00,
2013-06-01 17:16:00,94.0,65.9,29.87,ESE,115,1.0,3.0,40,0.00,,,0.00,WeatherCatV1.15B25,2013-06-01 21:16:00,
2013-06-01 17:21:00,93.5,66.2,29.87,West,262,6.0,7.0,41,0.00,,,0.00,WeatherCatV1.15B25,2013-06-01 21:21:00,
2013-06-01 17:26:00,93.1,65.9,29.87,SW,231,0.0,6.0,41,0.00,,,0.00,WeatherCatV1.15B25,2013-06-01 21:26:00,
2013-06-01 17:31:00,92.9,65.7,29.87,NNE,32,2.0,5.0,41,0.00,,,0.00,WeatherCatV1.15B25,2013-06-01 21:31:00,
2013-06-01 17:36:00,92.5,65.3,29.87,NNW,337,1.0,3.0,41,0.00,,,0.00,WeatherCatV1.15B25,2013-06-01 21:36:00,
2013-06-01 17:41:00,91.9,65.5,29.86,SW,229,2.0,7.0,42,0.00,,,0.00,WeatherCatV1.15B25,2013-06-01 21:41:00,
2013-06-01 17:46:00,91.3,65.6,29.86,NW,307,0.0,8.0,43,0.00,,,0.00,WeatherCatV1.15B25,2013-06-01 21:46:00,
2013-06-01 17:51:00,90.9,65.9,29.87,SW,228,0.0,8.0,44,0.00,,,0.00,WeatherCatV1.15B25,2013-06-01 21:51:00,
2013-06-01 17:56:00,90.5,66.2,29.86,South,191,2.0,5.0,45,0.00,,,0.00,WeatherCatV1.15B25,2013-06-01 21:56:00,
2013-06-01 18:01:00,90.2,66.6,29.86,WSW,245,4.0,7.0,46,0.00,,,0.00,WeatherCatV1.15B25,2013-06-01 22:01:00,
2013-06-01 18:06:00,89.9,66.9,29.86,NNW,343,7.0,10.0,47,0.00,,,0.00,WeatherCatV1.15B25,2013-06-01 22:06:00,
2013-06-01 18:11:00,89.4,67.1,29.86,SE,139,2.0,5.0,48,0.00,,,0.00,WeatherCatV1.15B25,2013-06-01 22:11:00,
2013-06-01 18:16:00,89.1,66.8,29.86,South,170,4.0,5.0,48,0.00,,,0.00,WeatherCatV1.15B25,2013-06-01 22:16:00,
2013-06-01 18:21:00,88.9,67.2,29.86,SSE,161,1.0,6.0,49,0.00,,,0.00,WeatherCatV1.15B25,2013-06-01 22:21:00,
2013-06-01 18:26:00,88.7,67.0,29.86,SSE,149,0.0,4.0,49,0.00,,,0.00,WeatherCatV1.15B25,2013-06-01 22:26:00,
2013-06-01 18:31:00,88.3,67.3,29.86,SW,225,2.0,4.0,50,0.00,,,0.00,WeatherCatV1.15B25,2013-06-01 22:31:00,
2013-06-01 18:36:00,87.9,66.9,29.86,SSW,211,2.0,3.0,50,0.00,,,0.00,WeatherCatV1.15B25,2013-06-01 22:36:00,
2013-06-01 18:41:00,87.5,67.7,29.86,South,174,1.0,5.0,52,0.00,,,0.00,WeatherCatV1.15B25,2013-06-01 22:41:00,
2013-06-01 18:46:00,87.1,67.3,29.86,WSW,250,2.0,5.0,52,0.00,,,0.00,WeatherCatV1.15B25,2013-06-01 22:46:00,
2013-06-01 18:51:00,86.7,67.5,29.87,SW,214,0.0,5.0,53,0.00,,,0.00,WeatherCatV1.15B25,2013-06-01 22:51:00,
2013-06-01 18:56:00,86.5,67.8,29.87,SW,224,0.0,3.0,54,0.00,,,0.00,WeatherCatV1.15B25,2013-06-01 22:56:00,
2013-06-01 19:01:00,86.2,67.0,29.87,SSW,211,0.0,5.0,53,0.00,,,0.00,WeatherCatV1.15B25,2013-06-01 23:01:00,
2013-06-01 19:06:00,85.8,67.2,29.87,SSW,200,1.0,5.0,54,0.00,,,0.00,WeatherCatV1.15B25,2013-06-01 23:06:00,
2013-06-01 19:11:00,85.5,67.5,29.87,SW,228,0.0,2.0,55,0.00,,,0.00,WeatherCatV1.15B25,2013-06-01 23:11:00,
2013-06-01 19:16:00,85.2,67.2,29.87,SE,127,1.0,6.0,55,0.00,,,0.00,WeatherCatV1.15B25,2013-06-01 23:16:00,
2013-06-01 19:21:00,85.0,67.0,29.87,WSW,238,0.0,7.0,55,0.00,,,0.00,WeatherCatV1.15B25,2013-06-01 23:21:00,
2013-06-01 19:26:00,84.7,67.2,29.88,North,6,1.0,2.0,56,0.00,,,0.00,WeatherCatV1.15B25,2013-06-01 23:26:00,
2013-06-01 19:31:00,84.5,67.6,29.88,NE,53,1.0,1.0,57,0.00,,,0.00,WeatherCatV1.15B25,2013-06-01 23:31:00,
2013-06-01 19:36:00,84.2,67.3,29.88,ESE,123,1.0,2.0,57,0.00,,,0.00,WeatherCatV1.15B25,2013-06-01 23:36:00,
2013-06-01 19:41:00,83.9,67.5,29.88,WSW,246,0.0,3.0,58,0.00,,,0.00,WeatherCatV1.15B25,2013-06-01 23:41:00,
2013-06-01 19:46:00,83.7,67.8,29.88,South,188,0.0,1.0,59,0.00,,,0.00,WeatherCatV1.15B25,2013-06-01 23:46:00,
2013-06-01 19:51:00,83.5,67.6,29.88,West,281,1.0,2.0,59,0.00,,,0.00,WeatherCatV1.15B25,2013-06-01 23:51:00,
2013-06-01 19:56:00,83.3,67.4,29.88,NNE,15,2.0,4.0,59,0.00,,,0.00,WeatherCatV1.15B25,2013-06-01 23:56:00,
2013-06-01 20:01:00,83.1,67.7,29.88,SE,141,1.0,2.0,60,0.00,,,0.00,WeatherCatV1.15B25,2013-06-02 00:01:00,
2013-06-01 20:06:00,82.8,67.5,29.88,South,172,0.0,1.0,60,0.00,,,0.00,WeatherCatV1.15B25,2013-06-02 00:06:00,
2013-06-01 20:11:00,82.7,67.9,29.88,North,354,0.0,4.0,61,0.00,,,0.00,WeatherCatV1.15B25,2013-06-02 00:11:00,
2013-06-01 20:16:00,82.4,67.6,29.87,SSE,165,1.0,3.0,61,0.00,,,0.00,WeatherCatV1.15B25,2013-06-02 00:16:00,
2013-06-01 20:21:00,82.2,67.4,29.88,NNW,330,1.0,5.0,61,0.00,,,0.00,WeatherCatV1.15B25,2013-06-02 00:21:00,
2013-06-01 20:26:00,82.0,67.7,29.87,NNW,327,0.0,4.0,62,0.00,,,0.00,WeatherCatV1.15B25,2013-06-02 00:26:00,
2013-06-01 20:31:00,81.8,67.5,29.88,SSW,205,2.0,4.0,62,0.00,,,0.00,WeatherCatV1.15B25,2013-06-02 00:31:00,
2013-06-01 20:36:00,81.7,67.4,29.87,SW,233,5.0,7.0,62,0.00,,,0.00,WeatherCatV1.15B25,2013-06-02 00:36:00,
2013-06-01 20:41:00,81.6,67.8,29.88,WSW,246,2.0,2.0,63,0.00,,,0.00,WeatherCatV1.15B25,2013-06-02 00:41:00,
2013-06-01 20:46:00,81.5,67.7,29.88,SSW,211,0.0,2.0,63,0.00,,,0.00,WeatherCatV1.15B25,2013-06-02 00:46:00,
2013-06-01 20:51:00,81.3,67.5,29.88,NNE,13,1.0,2.0,63,0.00,,,0.00,WeatherCatV1.15B25,2013-06-02 00:51:00,
2013-06-01 20:56:00,81.2,67.8,29.88,SW,215,0.0,6.0,64,0.00,,,0.00,WeatherCatV1.15B25,2013-06-02 00:56:00,
2013-06-01 21:01:00,81.0,67.6,29.88,NW,316,0.0,3.0,64,0.00,,,0.00,WeatherCatV1.15B25,2013-06-02 01:01:00,
2013-06-01 21:06:00,80.9,67.6,29.89,North,349,1.0,5.0,64,0.00,,,0.00,WeatherCatV1.15B25,2013-06-02 01:06:00,
2013-06-01 21:11:00,80.7,67.4,29.89,SSW,194,1.0,4.0,64,0.00,,,0.00,WeatherCatV1.15B25,2013-06-02 01:11:00,
2013-06-01 21:16:00,80.6,67.3,29.89,SSW,201,1.0,7.0,64,0.00,,,0.00,WeatherCatV1.15B25,2013-06-02 01:16:00,
2013-06-01 21:21:00,80.5,67.2,29.89,SSW,201,0.0,6.0,64,0.00,,,0.00,WeatherCatV1.15B25,2013-06-02 01:21:00,
2013-06-01 21:26:00,80.4,66.6,29.89,West,264,0.0,5.0,63,0.00,,,0.00,WeatherCatV1.15B25,2013-06-02 01:26:00,
2013-06-01 21:31:00,80.2,66.9,29.89,WNW,283,0.0,1.0,64,0.00,,,0.00,WeatherCatV1.15B25,2013-06-02 01:31:00,
2013-06-01 21:36:00,80.0,66.7,29.90,NNE,31,2.0,2.0,64,0.00,,,0.00,WeatherCatV1.15B25,2013-06-02 01:36:00,
2013-06-01 21:41:00,79.8,67.0,29.90,SW,226,0.0,4.0,65,0.00,,,0.00,WeatherCatV1.15B25,2013-06-02 01:41:00,
2013-06-01 21:46:00,79.7,66.9,29.89,SW,222,1.0,4.0,65,0.00,,,0.00,WeatherCatV1.15B25,2013-06-02 01:46:00,
2013-06-01 21:52:00,79.5,67.1,29.90,NE,36,1.0,1.0,66,0.00,,,0.00,WeatherCatV1.15B25,2013-06-02 01:52:00,
2013-06-01 21:57:00,79.4,67.0,29.90,North,6,0.0,2.0,66,0.00,,,0.00,WeatherCatV1.15B25,2013-06-02 01:57:00,
2013-06-01 22:02:00,79.2,66.8,29.89,SW,235,1.0,7.0,66,0.00,,,0.00,WeatherCatV1.15B25,2013-06-02 02:02:00,
2013-06-01 22:07:00,79.0,67.1,29.90,SW,214,0.0,3.0,67,0.00,,,0.00,WeatherCatV1.15B25,2013-06-02 02:07:00,
2013-06-01 22:12:00,78.8,66.9,29.90,SSW,210,0.0,0.0,67,0.00,,,0.00,WeatherCatV1.15B25,2013-06-02 02:12:00,
2013-06-01 22:17:00,78.5,67.0,29.89,North,11,0.0,1.0,68,0.00,,,0.00,WeatherCatV1.15B25,2013-06-02 02:17:00,
2013-06-01 22:22:00,78.4,66.9,29.90,NW,316,1.0,4.0,68,0.00,,,0.00,WeatherCatV1.15B25,2013-06-02 02:22:00,
2013-06-01 22:27:00,78.3,66.8,29.89,North,349,3.0,7.0,68,0.00,,,0.00,WeatherCatV1.15B25,2013-06-02 02:27:00,
2013-06-01 22:32:00,78.1,67.1,29.90,WSW,253,0.0,1.0,69,0.00,,,0.00,WeatherCatV1.15B25,2013-06-02 02:32:00,
2013-06-01 22:37:00,78.0,67.0,29.89,SSE,152,1.0,3.0,69,0.00,,,0.00,WeatherCatV1.15B25,2013-06-02 02:37:00,
2013-06-01 22:42:00,77.8,66.8,29.89,SSW,197,2.0,5.0,69,0.00,,,0.00,WeatherCatV1.15B25,2013-06-02 02:42:00,
2013-06-01 22:47:00,77.7,66.7,29.89,East,97,1.0,2.0,69,0.00,,,0.00,WeatherCatV1.15B25,2013-06-02 02:47:00,
2013-06-01 22:52:00,77.6,66.6,29.89,SW,214,4.0,4.0,69,0.00,,,0.00,WeatherCatV1.15B25,2013-06-02 02:52:00,
2013-06-01 22:57:00,77.6,66.6,29.89,NE,43,1.0,3.0,69,0.00,,,0.00,WeatherCatV1.15B25,2013-06-02 02:57:00,
2013-06-01 23:02:00,77.9,67.3,29.89,NNE,18,0.0,1.0,70,0.00,,,0.00,WeatherCatV1.15B25,2013-06-02 03:02:00,
2013-06-01 23:07:00,77.7,66.7,29.89,SSE,158,0.0,1.0,69,0.00,,,0.00,WeatherCatV1.15B25,2013-06-02 03:07:00,
2013-06-01 23:12:00,77.4,66.8,29.89,South,183,1.0,4.0,70,0.00,,,0.00,WeatherCatV1.15B25,2013-06-02 03:12:00,
2013-06-01 23:17:00,77.2,66.6,29.89,SSW,211,0.0,3.0,70,0.00,,,0.00,WeatherCatV1.15B25,2013-06-02 03:17:00,
2013-06-01 23:22:00,77.0,66.4,29.90,NE,53,1.0,5.0,70,0.00,,,0.00,WeatherCatV1.15B25,2013-06-02 03:22:00,
2013-06-01 23:27:00,77.0,66.9,29.89,SE,142,1.0,1.0,71,0.00,,,0.00,WeatherCatV1.15B25,2013-06-02 03:27:00,
2013-06-01 23:32:00,76.9,66.8,29.89,SSE,147,0.0,1.0,71,0.00,,,0.00,WeatherCatV1.15B25,2013-06-02 03:32:00,
2013-06-01 23:37:00,76.8,66.7,29.89,SW,236,1.0,1.0,71,0.00,,,0.00,WeatherCatV1.15B25,2013-06-02 03:37:00,
2013-06-01 23:42:00,76.7,66.6,29.89,ENE,61,0.0,3.0,71,0.00,,,0.00,WeatherCatV1.15B25,2013-06-02 03:42:00,
2013-06-01 23:47:00,76.9,66.8,29.89,SE,135,0.0,1.0,71,0.00,,,0.00,WeatherCatV1.15B25,2013-06-02 03:47:00,
2013-06-01 23:52:00,76.6,66.5,29.89,SSW,203,0.0,1.0,71,0.00,,,0.00,WeatherCatV1.15B25,2013-06-02 03:52:00,
2013-06-01 23:57:00,76.3,66.2,29.89,ENE,70,1.0,2.0,71,0.00,,,0.00,WeatherCatV1.15B25,2013-06-02 03:57:00,